Location: Newark
(46.7000°N, 60.6000°W)
Time: 17:06:38
(UTC+00:00)

deb Explorer IX - All Passes

Search period start: 21 October 2020 00:00
Search period end: 31 October 2020 00:00
Orbit: 537 x 1106 km, 38.8° (Epoch: 19 October)

Date Brightness Start Highest point End Pass type
(mag) Time Alt. Az. Time Alt. Az. Time Alt. Az.
21 Oct - 11:17:47 10° SSW 11:22:49 21° SSE 11:28:01 10° ESE daylight
21 Oct - 13:02:35 10° SW 13:09:10 40° SSE 13:15:52 10° E daylight
21 Oct - 14:49:04 10° WSW 14:55:59 45° S 15:02:39 10° ESE daylight
21 Oct - 16:36:25 10° W 16:42:35 30° SSW 16:48:21 10° SE daylight
21 Oct - 18:26:25 10° WSW 18:28:26 11° SW 18:30:25 10° SSW daylight
22 Oct - 10:54:34 10° SSW 10:59:29 21° SSE 11:04:39 10° ESE daylight
22 Oct - 12:39:18 10° SW 12:45:50 40° SSE 12:52:33 10° E daylight
22 Oct - 14:25:45 10° WSW 14:32:38 45° S 14:39:23 10° ESE daylight
22 Oct - 16:13:03 10° W 16:19:15 30° SSW 16:25:09 10° SE daylight
22 Oct - 18:02:52 10° WSW 18:05:09 12° SW 18:07:22 10° SSW daylight
23 Oct - 10:31:22 10° SSW 10:36:11 21° SSE 10:41:15 10° ESE daylight
23 Oct - 12:16:03 10° SW 12:22:29 40° SSE 12:29:12 10° E daylight
23 Oct - 14:02:27 10° WSW 14:09:16 45° S 14:16:06 10° ESE daylight
23 Oct - 15:49:41 10° W 15:55:55 31° SSW 16:01:54 10° SE daylight
23 Oct - 17:39:24 10° WSW 17:41:51 12° SW 17:44:15 10° SSW daylight
24 Oct - 10:08:12 10° SSW 10:12:52 20° SSE 10:17:51 10° ESE daylight
24 Oct - 11:52:49 10° SW 11:59:08 39° SSE 12:05:50 10° E daylight
24 Oct - 13:39:09 10° WSW 13:45:55 45° S 13:52:47 10° ESE daylight
24 Oct - 15:26:20 10° W 15:32:34 31° SSW 15:38:38 10° SE daylight
24 Oct - 17:15:57 10° WSW 17:18:33 12° SW 17:21:05 10° SSW daylight
25 Oct - 09:45:02 10° SSW 09:49:34 20° SSE 09:54:25 10° ESE visible
25 Oct - 11:29:36 10° SW 11:35:47 39° SSE 11:42:27 10° E daylight
25 Oct - 13:15:53 10° WSW 13:22:33 45° S 13:29:27 10° ESE daylight
25 Oct - 15:03:01 10° W 15:09:13 31° SSW 15:15:21 10° SE daylight
25 Oct - 16:52:33 10° WSW 16:55:14 12° SW 16:57:53 10° SSW daylight
26 Oct - 09:21:55 10° S 09:26:17 20° SSE 09:30:59 10° ESE visible
26 Oct - 11:06:25 10° SW 11:12:28 39° SSE 11:19:04 10° E daylight
26 Oct - 12:52:38 10° WSW 12:59:12 44° S 13:06:06 10° ESE daylight
26 Oct - 14:39:42 10° W 14:45:51 31° SSW 14:52:02 10° SE daylight
26 Oct - 16:29:10 10° WSW 16:31:55 12° SW 16:34:37 10° SSW daylight
27 Oct - 08:58:49 10° S 09:03:00 19° SSE 09:07:32 10° ESE visible
27 Oct - 10:43:14 10° SW 10:49:09 38° SSE 10:55:39 10° E daylight
27 Oct - 12:29:24 10° WSW 12:35:51 44° S 12:42:43 10° ESE daylight
27 Oct - 14:16:25 10° W 14:22:31 30° SSW 14:28:42 10° SE daylight
27 Oct - 16:05:49 10° WSW 16:08:35 12° SW 16:11:19 10° SSW daylight
28 Oct - 08:35:44 10° S 08:39:43 19° SSE 08:44:04 10° ESE visible
28 Oct - 10:20:05 10° SW 10:25:50 38° SSE 10:32:14 10° E daylight
28 Oct - 12:06:12 10° WSW 12:12:30 44° S 12:19:20 10° ESE daylight
28 Oct - 13:53:09 10° W 13:59:09 30° SSW 14:05:20 10° SE daylight
28 Oct - 15:42:32 10° WSW 15:45:15 12° SW 15:47:58 10° SSW daylight
29 Oct - 08:12:41 10° S 08:16:28 18° SSE 08:20:36 10° ESE visible
29 Oct - 09:56:57 10° SW 10:02:32 37° SSE 10:08:48 10° ESE visible
29 Oct - 11:43:01 10° WSW 11:49:11 43° S 11:55:56 10° ESE daylight
29 Oct - 13:29:54 10° W 13:35:49 30° SSW 13:41:58 10° SE daylight
29 Oct - 15:19:16 10° WSW 15:21:56 12° SW 15:24:36 10° SSW daylight
30 Oct - 07:49:39 10° S 07:53:14 17° SSE 07:57:09 10° ESE visible
30 Oct - 09:33:51 10° SW 09:39:15 36° SSE 09:45:23 10° ESE visible
30 Oct - 11:19:50 10° WSW 11:25:51 43° S 11:32:30 10° ESE daylight
30 Oct - 13:06:42 10° W 13:12:28 29° SSW 13:18:35 10° SE daylight
30 Oct - 14:56:03 10° WSW 14:58:36 12° SW 15:01:10 10° SSW daylight
